Tiempo cada hora Cehok

Hoy, 23 Abril, Viernes

Tiempo Temperatura Precipitaciones Viento Presión Humedad
00:00 +9°C° 1 mm 2 mps 629 mmHg 96%
01:00 +9°C° 0.5 mm 2 mps 629 mmHg 96%
02:00 +8°C° 0.5 mm 2 mps 629 mmHg 96%
03:00 +7°C° 0 mm 2 mps 629 mmHg 97%
04:00 +7°C° 0.4 mm 2 mps 629 mmHg 97%
05:00 +7°C° 0.4 mm 2 mps 629 mmHg 97%
06:00 +7°C° 0.4 mm 2 mps 629 mmHg 97%
07:00 +7°C° 0.5 mm 2 mps 629 mmHg 93%
08:00 +8°C° 0.5 mm 2 mps 629 mmHg 90%
09:00 +8°C° 0 mm 2 mps 630 mmHg 88%
10:00 +9°C° 0.4 mm 3 mps 630 mmHg 80%
11:00 +9°C° 0.4 mm 3 mps 630 mmHg 73%
12:00 +10°C° 0.4 mm 3 mps 631 mmHg 65%
13:00 +10°C° 0 mm 3 mps 631 mmHg 58%
14:00 +11°C° 0 mm 3 mps 631 mmHg 51%
15:00 +11°C° 0 mm 3 mps 631 mmHg 44%
16:00 +10°C° 0 mm 2 mps 631 mmHg 48%
17:00 +9°C° 0 mm 2 mps 631 mmHg 51%
18:00 +10°C° 0 mm 1 mps 631 mmHg 55%
19:00 +7°C° 0 mm 2 mps 631 mmHg 54%
20:00 +6°C° 0 mm 2 mps 631 mmHg 52%
21:00 +5°C° 0 mm 2 mps 631 mmHg 50%
22:00 +5°C° 0 mm 2 mps 631 mmHg 54%
23:00 +4°C° 0 mm 2 mps 631 mmHg 58%

Mañana, 24 Abril, Sábado

Tiempo Temperatura Precipitaciones Viento Presión Humedad
00:00 +4°C° 0 mm 2 mps 631 mmHg 62%
01:00 +4°C° 0 mm 2 mps 631 mmHg 70%
02:00 +4°C° 0 mm 2 mps 631 mmHg 77%
03:00 +4°C° 0 mm 2 mps 630 mmHg 85%
04:00 +5°C° 0 mm 2 mps 630 mmHg 87%
05:00 +5°C° 0 mm 2 mps 630 mmHg 89%
06:00 +6°C° 0 mm 2 mps 630 mmHg 91%
07:00 +7°C° 0 mm 3 mps 630 mmHg 84%
08:00 +9°C° 0 mm 3 mps 630 mmHg 76%
09:00 +10°C° 0 mm 3 mps 630 mmHg 69%
10:00 +11°C° 0 mm 3 mps 630 mmHg 62%
11:00 +13°C° 0 mm 3 mps 630 mmHg 56%
12:00 +14°C° 0 mm 3 mps 630 mmHg 49%
13:00 +14°C° 0 mm 3 mps 630 mmHg 49%
14:00 +14°C° 0 mm 3 mps 630 mmHg 48%
15:00 +16°C° 0 mm 3 mps 630 mmHg 47%
16:00 +15°C° 0 mm 2 mps 630 mmHg 54%
17:00 +13°C° 0 mm 2 mps 630 mmHg 60%
18:00 +12°C° 0 mm 1 mps 630 mmHg 67%
19:00 +11°C° 0 mm 1 mps 630 mmHg 68%
20:00 +10°C° 0 mm 1 mps 630 mmHg 68%
21:00 +9°C° 0 mm 1 mps 630 mmHg 69%
22:00 +9°C° 0 mm 1 mps 630 mmHg 69%
23:00 +7°C° 0 mm 2 mps 629 mmHg 69%

Pasado mañana, 25 Abril, Domingo

Tiempo Temperatura Precipitaciones Viento Presión Humedad
00:00 +7°C° 0 mm 2 mps 629 mmHg 69%
01:00 +7°C° 0 mm 2 mps 629 mmHg 72%
02:00 +7°C° 0 mm 2 mps 629 mmHg 75%
03:00 +7°C° 0 mm 1 mps 629 mmHg 78%
04:00 +8°C° 0 mm 1 mps 629 mmHg 78%
05:00 +8°C° 0 mm 1 mps 630 mmHg 77%
06:00 +9°C° 0 mm 1 mps 630 mmHg 76%
07:00 +10°C° 0 mm 2 mps 630 mmHg 70%
08:00 +12°C° 0 mm 2 mps 631 mmHg 64%
09:00 +13°C° 0 mm 3 mps 631 mmHg 58%
10:00 +14°C° 0 mm 3 mps 631 mmHg 55%
11:00 +16°C° 0 mm 3 mps 631 mmHg 53%
12:00 +17°C° 0 mm 3 mps 631 mmHg 50%
13:00 +17°C° 0 mm 3 mps 631 mmHg 49%
14:00 +17°C° 0 mm 3 mps 631 mmHg 48%
15:00 +17°C° 0 mm 3 mps 631 mmHg 48%
16:00 +16°C° 0 mm 3 mps 630 mmHg 55%
17:00 +15°C° 0 mm 2 mps 630 mmHg 63%
18:00 +14°C° 0 mm 2 mps 629 mmHg 71%
19:00 +13°C° 0 mm 2 mps 629 mmHg 78%
20:00 +10°C° 0 mm 2 mps 629 mmHg 85%
21:00 +9°C° 0 mm 2 mps 629 mmHg 92%
22:00 +9°C° 0 mm 2 mps 629 mmHg 91%
23:00 +9°C° 0 mm 2 mps 628 mmHg 91%

26 Abril, Lunes

Tiempo Temperatura Precipitaciones Viento Presión Humedad
00:00 +9°C° 0 mm 2 mps 628 mmHg 91%
01:00 +8°C° 0 mm 2 mps 628 mmHg 91%
02:00 +8°C° 0 mm 2 mps 627 mmHg 91%
03:00 +8°C° 0 mm 2 mps 627 mmHg 91%
04:00 +9°C° 0 mm 2 mps 627 mmHg 89%
05:00 +9°C° 0 mm 2 mps 627 mmHg 87%
06:00 +9°C° 0 mm 2 mps 627 mmHg 85%
07:00 +12°C° 0 mm 3 mps 627 mmHg 76%
08:00 +14°C° 0 mm 3 mps 627 mmHg 67%
09:00 +17°C° 0 mm 3 mps 628 mmHg 57%
10:00 +18°C° 0 mm 4 mps 628 mmHg 53%
11:00 +19°C° 0 mm 4 mps 627 mmHg 49%
12:00 +20°C° 0 mm 4 mps 627 mmHg 45%
13:00 +20°C° 0 mm 4 mps 627 mmHg 45%
14:00 +20°C° 0 mm 4 mps 627 mmHg 45%
15:00 +20°C° 0 mm 4 mps 626 mmHg 44%
16:00 +18°C° 0.4 mm 3 mps 626 mmHg 56%
17:00 +16°C° 0.4 mm 3 mps 626 mmHg 67%
18:00 +13°C° 0.4 mm 3 mps 625 mmHg 79%
19:00 +12°C° 0.1 mm 3 mps 625 mmHg 81%
20:00 +12°C° 0.1 mm 2 mps 625 mmHg 83%
21:00 +12°C° 0.1 mm 2 mps 625 mmHg 85%
22:00 +10°C° 0.3 mm 2 mps 625 mmHg 88%
23:00 +10°C° 0.3 mm 2 mps 625 mmHg 90%

27 Abril, Martes

Tiempo Temperatura Precipitaciones Viento Presión Humedad
00:00 +10°C° 0.3 mm 2 mps 625 mmHg 92%
01:00 +9°C° 0.7 mm 2 mps 625 mmHg 93%
02:00 +9°C° 0.7 mm 2 mps 625 mmHg 94%
03:00 +10°C° 0.7 mm 1 mps 625 mmHg 94%
04:00 +10°C° 0.9 mm 1 mps 625 mmHg 94%
05:00 +11°C° 0.9 mm 1 mps 625 mmHg 93%
06:00 +11°C° 0.9 mm 1 mps 625 mmHg 93%
07:00 +12°C° 0.6 mm 1 mps 625 mmHg 91%
08:00 +12°C° 0.6 mm 2 mps 626 mmHg 88%
09:00 +13°C° 0.6 mm 2 mps 626 mmHg 86%
10:00 +12°C° 0.8 mm 3 mps 626 mmHg 88%
11:00 +12°C° 0.8 mm 3 mps 626 mmHg 89%
12:00 +12°C° 0.8 mm 3 mps 626 mmHg 91%
13:00 +11°C° 1.9 mm 3 mps 626 mmHg 92%
14:00 +12°C° 1.9 mm 2 mps 626 mmHg 93%
15:00 +10°C° 1.9 mm 2 mps 626 mmHg 95%
16:00 +10°C° 2.5 mm 2 mps 626 mmHg 95%
17:00 +9°C° 2.5 mm 2 mps 626 mmHg 96%
18:00 +9°C° 2.5 mm 2 mps 627 mmHg 97%
19:00 +9°C° 0.5 mm 2 mps 627 mmHg 97%
20:00 +9°C° 0.5 mm 2 mps 627 mmHg 97%
21:00 +9°C° 0.5 mm 2 mps 628 mmHg 97%
22:00 +9°C° 0.5 mm 2 mps 627 mmHg 97%
23:00 +9°C° 0.5 mm 2 mps 627 mmHg 97%

28 Abril, Miércoles

Tiempo Temperatura Precipitaciones Viento Presión Humedad
00:00 +8°C° 0.5 mm 2 mps 627 mmHg 96%
01:00 +8°C° 0 mm 2 mps 627 mmHg 97%
02:00 +9°C° 0 mm 1 mps 627 mmHg 97%
03:00 +8°C° 0 mm 1 mps 627 mmHg 98%
04:00 +8°C° 0 mm 1 mps 627 mmHg 97%
05:00 +8°C° 0 mm 1 mps 627 mmHg 96%
06:00 +7°C° 0 mm 2 mps 628 mmHg 96%
07:00 +8°C° 0 mm 2 mps 628 mmHg 91%
08:00 +9°C° 0 mm 2 mps 628 mmHg 87%
09:00 +10°C° 0 mm 2 mps 629 mmHg 83%
10:00 +12°C° 0 mm 2 mps 629 mmHg 77%
11:00 +13°C° 0 mm 2 mps 629 mmHg 72%
12:00 +13°C° 0 mm 3 mps 629 mmHg 67%
13:00 +13°C° 0 mm 3 mps 629 mmHg 65%
14:00 +13°C° 0 mm 3 mps 629 mmHg 64%
15:00 +13°C° 0 mm 3 mps 629 mmHg 63%
16:00 +13°C° 0 mm 2 mps 629 mmHg 68%
17:00 +12°C° 0 mm 2 mps 629 mmHg 73%
18:00 +10°C° 0 mm 2 mps 629 mmHg 78%
19:00 +9°C° 0 mm 2 mps 629 mmHg 82%
20:00 +8°C° 0 mm 2 mps 629 mmHg 87%
21:00 +7°C° 0 mm 2 mps 629 mmHg 91%
22:00 +7°C° 0 mm 2 mps 629 mmHg 91%
23:00 +7°C° 0 mm 2 mps 629 mmHg 92%
Mostrar más

Necesitamos Su Consentimiento

Meteoprog y nuestros Proveedores de Servicios pueden almacenar y acceder a sus datos personales como cookies, identificadores de dispositivo u otras tecnologías similares de su dispositivo y procesar dichos datos para personalizar contenido y anuncios, además de ofrecer funciones de redes sociales y analizar el tráfico.

  • Almacenar y/o acceder a información en su dispositivo

    Se puede almacenar o acceder a cookies, identificadores de dispositivo u otra información de su dispositivo para los fines anteriormente indicados.

  • Anuncios y contenido personalizados, medición de anuncios y contenido, percepciones del público, y desarrollo de productos

    Los anuncios y el contenido pueden personalizarse en base a su perfil. Se pueden añadir más datos para personalizar mejor los anuncios y contenidos. Se puede medir el rendimiento de los anuncios y contenidos. Se puede obtener la percepción sobre el público que ha visto los anuncios y contenidos. Dichos datos pueden usarse para desarrollar o mejorar la experiencia del usuario, sistemas y software.

Al hacer clic en ‘Estoy De Acuerdo’ usted permitirá el uso de las cookies, identificadores de dispositivo, balizas web u otras tecnologías similares indicadas. Su configuración puede cambiarse desde el navegador de su dispositivo.

Para ciertos fines, los intereses legítimos pueden ser considerados por encima del consentimiento. Puede leer más sobre ello en nuestra Política de Privacidad y Cookies.